[[{"header":{"parameterUnit":"m.s-1","parameterCategory":1,"la1":30.2991,"la2":30.254,"lo1":-89.0895,"lo2":-89.0444,"dy":0.0017,"dx":0.0017,"nx":28,"ny":28,"refTime":"2025-11-21T09:00:00:Z","depth":0,"parameterNumber":2,"parameterNumberName":"U-component_of_WINDS"},"data":[0,0,0,0,0,0,0,0,0,0,0,0,0,0,0,0,0,0,0,0,0,0,0,0,0,0,0,0,0,0,0,0,0,0,0,0,0,0,0,0,0,0,0,0,0,0,0,0,0,0,0,0,0,0,0,0,0,0,-0.0514,-0.0514,0,-0.0517,-0.0517,-0.0517,-0.0557,-0.0558,-0.0559,-0.056,-0.0559,-0.0558,-0.0557,0,0,0,0,0,0,0,0,0,0,0,0,0,-0.054,-0.0539,-0.0514,-0.0514,-0.0514,-0.0517,-0.0517,-0.0517,-0.0557,-0.0558,-0.0559,-0.056,-0.0559,-0.0558,-0.0557,0,0,0,0,0,0,0,0,0,0,0,0,0,-0.0534,-0.0539,-0.0514,-0.0534,-0.0536,-0.0517,-0.0517,-0.0517,-0.0556,-0.0558,-0.0559,-0.0561,-0.056,-0.0558,-0.0557,-0.0517,0,0,-0.0552,-0.0552,0,0,0,0,0,0,0,0,-0.0535,-0.0533,-0.0531,-0.0533,-0.0535,-0.0538,-0.0526,-0.0517,-0.0556,-0.0548,-0.056,-0.0562,-0.055,-0.055,-0.0547,-0.0517,-0.0517,-0.0552,-0.0551,-0.0551,-0.055,0,0,0,0,0,0,0,-0.0535,-0.0533,-0.0515,-0.0531,-0.0533,-0.0542,-0.0543,-0.0524,-0.0541,-0.0549,-0.0552,-0.0552,-0.0552,-0.0548,-0.0547,-0.0517,-0.0552,-0.0551,-0.055,-0.0549,-0.0454,-0.0453,0,0,0,0,0,0,-0.0533,-0.0533,-0.0515,-0.0515,-0.0539,-0.0541,-0.0542,-0.0535,-0.0541,-0.0543,-0.0551,-0.0554,-0.055,-0.0549,-0.0547,-0.0501,-0.0551,-0.0549,-0.0548,-0.0456,-0.0454,-0.0452,0,0,0,0,0,0,-0.0533,-0.0531,-0.0515,-0.0525,-0.0524,-0.0539,-0.0531,-0.0535,-0.0531,-0.0542,-0.0545,-0.0544,-0.0551,-0.0549,-0.0524,-0.0501,-0.0549,-0.0547,-0.0458,-0.0455,-0.0453,-0.0407,0,0,0,0,0,0,-0.0534,-0.0531,-0.0516,-0.0525,-0.0523,-0.0492,-0.053,-0.0534,-0.0529,-0.0533,-0.0537,-0.0539,-0.0552,-0.0526,-0.0523,-0.05,-0.0546,-0.046,-0.0457,-0.0454,-0.0411,-0.0403,-0.0397,0,0,0,0,0,-0.0535,-0.0502,-0.0515,-0.0513,-0.0505,-0.0491,-0.049,-0.0507,-0.0527,-0.0512,-0.052,-0.0539,-0.0505,-0.0524,-0.052,-0.0496,-0.0462,-0.0458,-0.0454,-0.0414,-0.0405,-0.0397,0,0,0,0,0,0,-0.0489,-0.0504,-0.0518,-0.0488,-0.0488,-0.0498,-0.0479,-0.0497,-0.049,-0.0494,-0.0515,-0.0515,-0.0487,-0.0489,-0.051,-0.0458,-0.0487,-0.0482,-0.0457,-0.0449,-0.0442,-0.0441,-0.0545,0,0,0,0,0,-0.0476,-0.0464,-0.0477,-0.0449,-0.0448,-0.0464,-0.0458,-0.0472,-0.0472,-0.0472,-0.0477,-0.0476,-0.0465,-0.0457,-0.0448,-0.0412,-0.0413,-0.0394,-0.0387,-0.0382,-0.0377,-0.0357,-0.0349,-0.044,-0.044,-0.044,0,0,-0.0447,-0.0454,-0.0445,-0.044,-0.0442,-0.0428,-0.0463,-0.0447,-0.0437,-0.0469,-0.0446,-0.045,-0.045,-0.042,-0.0406,-0.0421,-0.0352,-0.0377,-0.0372,-0.037,-0.0353,-0.0344,-0.0336,-0.0438,-0.0438,-0.0439,0,0,-0.0388,-0.0393,-0.037,-0.0371,-0.0374,-0.0385,-0.038,-0.0387,-0.0392,-0.0369,-0.0393,-0.0381,-0.0362,-0.0361,-0.0358,-0.0301,-0.0318,-0.0297,-0.0261,-0.0242,-0.0234,-0.0228,-0.0206,-0.0198,-0.0293,-0.0293,-0.0293,0,-0.0352,-0.0334,-0.0355,-0.0338,-0.0334,-0.0365,-0.0341,-0.0342,-0.0341,-0.0337,-0.0354,-0.0331,-0.0334,-0.0303,-0.0289,-0.0286,-0.028,-0.0296,-0.0234,-0.0228,-0.0222,-0.0202,-0.0194,-0.029,-0.0291,-0.0291,-0.0291,0,-0.0288,-0.0275,-0.0256,-0.0256,-0.0251,-0.023,-0.0248,-0.024,-0.0255,-0.0263,-0.024,-0.0245,-0.0237,-0.0231,-0.0244,-0.0202,-0.0211,-0.0231,-0.0259,-0.021,-0.0191,-0.0184,-0.0286,-0.0287,-0.0288,-0.0289,0,0,-0.0198,-0.0212,-0.0204,-0.0205,-0.0211,-0.0201,-0.0182,-0.0176,-0.0168,-0.0167,-0.0151,-0.0135,-0.0154,-0.015,-0.0164,-0.0148,-0.0101,-0.017,-0.017,-0.0155,-0.0054,-0.0037,-0.0028,-0.0114,-0.0113,-0.0111,-0.0053,0,-0.014,-0.0109,-0.0129,-0.0094,-0.0082,-0.0112,-0.0095,-0.0097,-0.0105,-0.0095,-0.0104,-0.0092,-0.0119,-0.0117,-0.0102,-0.011,-0.0081,-0.0115,-0.0097,-0.0096,-0.0094,-0.0018,-0.0001,0.0055,-0.0046,-0.0045,-0.0044,0,-0.0067,-0.0065,-0.0029,-0.0039,-0.0034,-0.0019,-0.0015,-0.0006,-0.0009,-0.0016,-0.0013,-0.0031,-0.0013,-0.0043,-0.0017,-0.004,-0.0034,-0.0037,-0.0035,-0.0032,-0.0065,-0.0011,0.0072,0.0081,-0.0033,-0.0034,-0.0035,0,-0.0003,0.0009,0.0032,0.0032,0.0021,0.0033,0.0029,0.0024,0.0029,0.0032,0.0036,0.0042,0.0046,0.0051,0.0035,0.0014,0.0064,0.0032,0.006,0.006,0.0074,0.0074,0.0161,0.0074,0.0074,0.0073,0.0073,0,0.0065,0.0088,0.006,0.0075,0.01,0.0077,0.0103,0.0096,0.0092,0.0105,0.0079,0.0092,0.0069,0.008,0.0067,0.0092,0.0093,0.0089,0.0086,0.0092,0.0093,0.0098,0.0094,0.0076,0.0075,0.0075,0.0074,0,0.0142,0.0124,0.0147,0.0134,0.0131,0.0151,0.014,0.0153,0.0142,0.0159,0.0161,0.0145,0.0156,0.0139,0.015,0.0141,0.0175,0.0165,0.0176,0.0174,0.0203,0.0201,0.0298,0.031,0.0213,0.0214,0.0215,0,0.0188,0.0205,0.0193,0.0199,0.0196,0.0207,0.0211,0.0188,0.0194,0.0191,0.0205,0.0214,0.022,0.024,0.0229,0.0236,0.0228,0.0261,0.0229,0.0235,0.023,0.023,0.0232,0.0269,0.027,0.0271,0.0271,0,0.0272,0.0262,0.0268,0.0271,0.0277,0.0279,0.0279,0.0285,0.0261,0.0269,0.028,0.0284,0.0293,0.0303,0.0307,0.0304,0.0285,0.0281,0.0288,0.0297,0.0303,0.0301,0.0196,0.028,0.0279,0.0278,0.0278,0.0277,0.0336,0.035,0.0343,0.0351,0.0348,0.0349,0.036,0.0349,0.0357,0.0362,0.0348,0.0362,0.0358,0.0362,0.0361,0.0372,0.0358,0.0368,0.0371,0.0374,0.0379,0.0299,0.0372,0.0372,0.0372,0.0372,0.0372,0,0.042,0.0413,0.0421,0.0421,0.0427,0.0405,0.0404,0.0411,0.0423,0.0421,0.0426,0.0439,0.0447,0.0436,0.0443,0.0454,0.0446,0.0457,0.0457,0.0457,0.0391,0.0385,0.0464,0.0464,0.0464,0.0464,0.0464,0.0464,0.0464,0.0487,0.0475,0.0496,0.049,0.0502,0.0503,0.0504,0.0501,0.0516,0.0522,0.0514,0.0508,0.0514,0.0521,0.0518,0.0522,0.0538,0.0531,0.0471,0.0462,0.0453,0.0447,0.0538,0.0538,0.0597,0.0597,0.0598]},{"header":{"parameterUnit":"m.s-1","parameterCategory":1,"la1":30.2991,"la2":30.254,"lo1":-89.0895,"lo2":-89.0444,"dy":0.0017,"dx":0.0017,"nx":28,"ny":28,"refTime":"2025-11-21T09:00:00:Z","depth":0,"parameterNumber":3,"parameterNumberName":"V-component_of_WINDS"},"data":[0,0,0,0,0,0,0,0,0,0,0,0,0,0,0,0,0,0,0,0,0,0,0,0,0,0,0,0,0,0,0,0,0,0,0,0,0,0,0,0,0,0,0,0,0,0,0,0,0,0,0,0,0,0,0,0,0,0,3.5038,3.5038,0,3.5079,3.508,3.508,3.5056,3.5055,3.5054,3.5053,3.509,3.5092,3.5094,0,0,0,0,0,0,0,0,0,0,0,0,0,3.4933,3.4935,3.5038,3.5038,3.5039,3.5079,3.508,3.508,3.5056,3.5055,3.5053,3.5052,3.5089,3.5092,3.5094,0,0,0,0,0,0,0,0,0,0,0,0,0,3.4977,3.4936,3.5038,3.5032,3.5032,3.5079,3.508,3.508,3.5056,3.5055,3.5053,3.5051,3.5089,3.5092,3.5095,3.5148,0,0,3.5104,3.5105,0,0,0,0,0,0,0,0,3.4974,3.498,3.5032,3.5032,3.5032,3.5061,3.5056,3.5103,3.5057,3.5047,3.5053,3.5051,3.5081,3.5085,3.5096,3.515,3.5152,3.5104,3.5106,3.5108,3.5108,0,0,0,0,0,0,0,3.4971,3.4979,3.5054,3.5033,3.5033,3.5025,3.503,3.5065,3.5073,3.5048,3.5046,3.5052,3.5081,3.5093,3.5097,3.5152,3.5104,3.5107,3.5109,3.511,3.5251,3.5253,0,0,0,0,0,0,3.4969,3.4976,3.5053,3.5055,3.4999,3.5029,3.5033,3.5053,3.5073,3.5074,3.5053,3.505,3.5089,3.5093,3.5098,3.5162,3.5108,3.511,3.5112,3.5249,3.5251,3.5253,0,0,0,0,0,0,3.4967,3.4976,3.5051,3.5015,3.5024,3.5032,3.5055,3.5055,3.5067,3.5077,3.5078,3.5065,3.5088,3.5094,3.5136,3.5163,3.5112,3.5115,3.5247,3.525,3.5252,3.5291,0,0,0,0,0,0,3.4964,3.4976,3.4998,3.5016,3.5026,3.509,3.5056,3.5057,3.5073,3.507,3.5088,3.5089,3.5087,3.5132,3.5139,3.5167,3.5117,3.5245,3.5248,3.5252,3.5287,3.5295,3.5301,0,0,0,0,0,3.4961,3.5006,3.4999,3.5008,3.5054,3.5092,3.5098,3.5096,3.5076,3.5097,3.5103,3.5089,3.5159,3.5136,3.5145,3.5173,3.5243,3.5247,3.5251,3.5284,3.5293,3.5301,0,0,0,0,0,0,3.4989,3.5008,3.5001,3.5054,3.5072,3.5088,3.5115,3.5105,3.5128,3.5124,3.5118,3.5122,3.5167,3.5174,3.5148,3.5226,3.5197,3.5204,3.522,3.5228,3.5235,3.5233,3.512,0,0,0,0,0,3.5002,3.5033,3.5047,3.5092,3.5102,3.5107,3.5123,3.512,3.5137,3.5144,3.5153,3.5169,3.5195,3.5212,3.5236,3.5288,3.5291,3.5311,3.5318,3.5324,3.5329,3.5357,3.5366,3.5267,3.5267,3.5267,0,0,3.5028,3.5043,3.5062,3.5099,3.5112,3.5142,3.5113,3.5147,3.5168,3.5149,3.519,3.5197,3.5214,3.5261,3.5283,3.5269,3.5357,3.5329,3.5334,3.5336,3.5362,3.5371,3.538,3.527,3.527,3.5269,0,0,3.5092,3.5106,3.5146,3.516,3.518,3.5183,3.5193,3.521,3.5214,3.5256,3.5241,3.5266,3.5311,3.5324,3.5336,3.5403,3.539,3.5411,3.5447,3.5474,3.5481,3.5488,3.5512,3.5521,3.5416,3.5416,3.5416,0,3.5122,3.5169,3.5166,3.5201,3.5217,3.5202,3.524,3.5253,3.528,3.5291,3.5275,3.533,3.5341,3.5391,3.5407,3.5418,3.5427,3.5409,3.5481,3.5487,3.5494,3.5516,3.5525,3.5418,3.5418,3.5418,3.5418,0,3.5204,3.5236,3.5265,3.5293,3.5312,3.5349,3.535,3.5369,3.5364,3.5368,3.5409,3.5421,3.5447,3.5458,3.5453,3.5507,3.5498,3.5482,3.5453,3.5506,3.5527,3.5535,3.5422,3.5421,3.542,3.542,0,0,3.5288,3.5314,3.5325,3.5337,3.5358,3.5382,3.5417,3.5444,3.546,3.5479,3.5507,3.5544,3.5529,3.5543,3.5539,3.5562,3.5614,3.5543,3.5543,3.5556,3.5674,3.5687,3.5697,3.5606,3.5607,3.5609,3.5673,0,3.5353,3.5416,3.5414,3.5472,3.5501,3.5486,3.5516,3.5532,3.5536,3.556,3.5563,3.559,3.5568,3.5576,3.5599,3.5603,3.5638,3.5598,3.5631,3.5632,3.5628,3.5708,3.5722,3.5782,3.5681,3.5682,3.5683,0,3.5438,3.5461,3.5522,3.5539,3.5551,3.5578,3.5602,3.5626,3.5642,3.5643,3.5658,3.565,3.5683,3.5653,3.5699,3.5672,3.5685,3.5689,3.5691,3.5694,3.5662,3.5714,3.5801,3.581,3.5696,3.5695,3.5694,0,3.5493,3.5539,3.5582,3.5592,3.5613,3.5632,3.5641,3.5656,3.5672,3.5692,3.5702,3.5725,3.5738,3.5755,3.5752,3.5731,3.5798,3.5769,3.5799,3.58,3.5815,3.5814,3.5906,3.5822,3.5822,3.5822,3.5822,0,3.5566,3.5604,3.5607,3.5633,3.5674,3.5671,3.5712,3.5718,3.5731,3.5757,3.5744,3.5769,3.5763,3.5787,3.5785,3.5822,3.5828,3.5829,3.5828,3.5831,3.5831,3.584,3.5835,3.5824,3.5824,3.5824,3.5823,0,3.5636,3.5639,3.5684,3.57,3.5704,3.5734,3.5747,3.577,3.5773,3.5806,3.5813,3.5817,3.5844,3.5843,3.5873,3.5871,3.5918,3.5912,3.5913,3.5912,3.5943,3.594,3.6044,3.6058,3.5965,3.5966,3.5967,0,3.5683,3.5712,3.5731,3.5748,3.5759,3.5786,3.5803,3.5799,3.5817,3.5837,3.5858,3.5884,3.5905,3.5949,3.5953,3.5976,3.597,3.6005,3.5974,3.5975,3.5971,3.597,3.5972,3.6011,3.6012,3.6013,3.6014,0,3.5766,3.5766,3.5791,3.5817,3.5837,3.5856,3.5874,3.5888,3.5887,3.5907,3.5935,3.5951,3.5982,3.6008,3.603,3.6037,3.6025,3.6024,3.6032,3.6035,3.6035,3.6036,3.5931,3.6022,3.6021,3.602,3.602,3.602,3.5825,3.585,3.5868,3.5896,3.5909,3.5926,3.5949,3.5955,3.5979,3.6005,3.6001,3.6033,3.6046,3.6075,3.6084,3.6107,3.6095,3.6107,3.611,3.6113,3.6117,3.6031,3.6111,3.6111,3.611,3.611,3.611,0,3.5908,3.5918,3.5944,3.597,3.5992,3.598,3.5998,3.6017,3.6045,3.606,3.6081,3.6113,3.6138,3.6144,3.6167,3.6185,3.618,3.6191,3.619,3.6191,3.6127,3.6117,3.6194,3.6194,3.6194,3.6194,3.6194,3.6194,3.5953,3.5995,3.5997,3.6044,3.6054,3.6086,3.6097,3.6112,3.6124,3.6161,3.6182,3.6186,3.6197,3.6221,3.6242,3.6243,3.6253,3.6266,3.6265,3.6204,3.6196,3.6188,3.6179,3.6268,3.6268,3.6328,3.6328,3.6329]}]]